Simultaneous Nadir Overpasses (SNOs) Predictions

Prediction of SNOs between AQUA and GOES-15 Satellite Orbit:

Table of predicted SNOs for the next 14.0 days since TLE Epoch: 5/17/2019
Index Date Time (AQUA) AQUA Lat,Lon GOES-15 Lat,Lon Distance(km) Time Diff (sec)
1 05/18/2019 09:55:07 -0.71,-124.95 0.05,-128.40 392.85 80
2 05/18/2019 22:16:31 -0.42,-130.14 -0.04,-128.41 197.05 80
3 05/20/2019 22:04:19 0.23,-127.18 -0.03,-128.43 141.32 80
4 05/21/2019 10:25:34 0.85,-132.34 0.02,-128.43 444.50 80
5 05/22/2019 21:52:06 0.83,-124.22 -0.04,-128.44 479.43 80
6 05/23/2019 10:13:21 0.25,-129.38 0.03,-128.44 106.60 80
7 05/25/2019 10:01:09 -0.41,-126.42 0.03,-128.45 231.18 80
8 05/25/2019 22:22:32 -0.72,-131.61 -0.02,-128.45 359.76 80
9 05/27/2019 22:10:21 -0.05,-128.66 -0.02,-128.46 22.29 80
10 05/29/2019 21:58:08 0.56,-125.69 -0.02,-128.46 314.85 80
11 05/30/2019 10:19:22 0.51,-130.85 0.01,-128.47 270.78 80




NCC Satellite Simultaneous Nadir Overpasses (SNOs) Prediction Service
